TimePDT,TemperatureF,Dew PointF,Humidity,Sea Level PressureIn,VisibilityMPH,Wind Direction,Wind SpeedMPH,Gust SpeedMPH,PrecipitationIn,Events,Conditions,WindDirDegrees,DateUTC
12:15 AM,55.4,42.8,63,29.77,10.0,SE,4.6,-,N/A,,Clear,130,2013-10-10 07:15:00
12:35 AM,53.6,41.0,62,29.77,10.0,Calm,Calm,-,N/A,,Clear,0,2013-10-10 07:35:00
12:55 AM,51.8,39.2,62,29.77,10.0,South,3.5,-,N/A,,Clear,190,2013-10-10 07:55:00
1:15 AM,50.0,39.2,66,29.77,10.0,Calm,Calm,-,N/A,,Clear,0,2013-10-10 08:15:00
1:35 AM,51.8,39.2,62,29.77,10.0,Calm,Calm,-,N/A,,Clear,0,2013-10-10 08:35:00
1:55 AM,51.8,39.2,62,29.78,10.0,Calm,Calm,-,N/A,,Clear,0,2013-10-10 08:55:00
2:15 AM,50.0,39.2,66,29.78,10.0,Calm,Calm,-,N/A,,Clear,0,2013-10-10 09:15:00
2:35 AM,46.4,37.4,71,29.79,10.0,NW,3.5,-,N/A,,Clear,310,2013-10-10 09:35:00
2:55 AM,48.2,39.2,71,29.79,10.0,NW,3.5,-,N/A,,Clear,320,2013-10-10 09:55:00
3:15 AM,46.4,39.2,76,29.79,10.0,North,4.6,-,N/A,,Clear,350,2013-10-10 10:15:00
3:35 AM,48.2,39.2,71,29.79,10.0,Calm,Calm,-,N/A,,Clear,0,2013-10-10 10:35:00
3:55 AM,46.4,39.2,76,29.81,10.0,West,3.5,-,N/A,,Clear,260,2013-10-10 10:55:00
4:15 AM,46.4,39.2,76,29.82,10.0,Calm,Calm,-,N/A,,Clear,0,2013-10-10 11:15:00
4:35 AM,46.4,39.2,76,29.81,10.0,Calm,Calm,-,N/A,,Clear,0,2013-10-10 11:35:00
4:55 AM,46.4,39.2,76,29.82,10.0,Calm,Calm,-,N/A,,Clear,0,2013-10-10 11:55:00
5:15 AM,48.2,39.2,71,29.81,10.0,Calm,Calm,-,N/A,,Clear,0,2013-10-10 12:15:00
5:35 AM,46.4,39.2,76,29.82,10.0,Calm,Calm,-,N/A,,Clear,0,2013-10-10 12:35:00
5:55 AM,48.2,41.0,76,29.82,10.0,SSE,3.5,-,N/A,,Clear,160,2013-10-10 12:55:00
6:15 AM,48.2,41.0,76,29.83,10.0,SSE,3.5,-,N/A,,Clear,150,2013-10-10 13:15:00
6:35 AM,48.2,41.0,76,29.83,10.0,SE,3.5,-,N/A,,Clear,140,2013-10-10 13:35:00
6:55 AM,46.4,41.0,81,29.83,10.0,Calm,Calm,-,N/A,,Clear,0,2013-10-10 13:55:00
7:15 AM,44.6,41.0,87,29.84,10.0,Calm,Calm,-,N/A,,Clear,0,2013-10-10 14:15:00
7:35 AM,46.4,41.0,81,29.85,10.0,NW,3.5,-,N/A,,Clear,320,2013-10-10 14:35:00
7:55 AM,44.6,39.2,81,29.85,10.0,North,3.5,-,N/A,,Clear,10,2013-10-10 14:55:00
8:15 AM,44.6,41.0,87,29.87,10.0,NNW,3.5,-,N/A,,Clear,340,2013-10-10 15:15:00
8:35 AM,50.0,44.6,82,29.88,10.0,Calm,Calm,-,N/A,,Clear,0,2013-10-10 15:35:00
8:55 AM,55.4,44.6,67,29.89,10.0,North,8.1,-,N/A,,Clear,360,2013-10-10 15:55:00
9:15 AM,57.2,44.6,63,29.90,10.0,North,6.9,-,N/A,,Clear,360,2013-10-10 16:15:00
9:35 AM,59.0,44.6,59,29.90,10.0,North,6.9,-,N/A,,Clear,10,2013-10-10 16:35:00
9:55 AM,59.0,46.4,63,29.91,10.0,NNE,4.6,-,N/A,,Clear,20,2013-10-10 16:55:00
10:15 AM,60.8,46.4,59,29.91,10.0,Calm,Calm,-,N/A,,Clear,0,2013-10-10 17:15:00
10:35 AM,62.6,46.4,55,29.91,10.0,Calm,Calm,-,N/A,,Clear,0,2013-10-10 17:35:00
10:55 AM,64.4,44.6,49,29.92,10.0,SW,3.5,-,N/A,,Clear,220,2013-10-10 17:55:00
11:15 AM,66.2,44.6,46,29.92,10.0,ESE,3.5,-,N/A,,Clear,120,2013-10-10 18:15:00
11:35 AM,66.2,46.4,49,29.92,10.0,SSE,4.6,-,N/A,,Clear,150,2013-10-10 18:35:00
11:55 AM,66.2,48.2,52,29.92,10.0,East,3.5,-,N/A,,Clear,90,2013-10-10 18:55:00
12:15 PM,68.0,42.8,40,29.92,10.0,SSE,4.6,-,N/A,,Clear,150,2013-10-10 19:15:00
12:35 PM,69.8,44.6,40,29.91,10.0,SSE,8.1,-,N/A,,Clear,150,2013-10-10 19:35:00
12:55 PM,71.6,37.4,29,29.91,10.0,SSE,9.2,-,N/A,,Clear,150,2013-10-10 19:55:00
1:15 PM,73.4,35.6,25,29.91,10.0,South,8.1,-,N/A,,Clear,180,2013-10-10 20:15:00
1:35 PM,73.4,37.4,27,29.91,10.0,SSE,8.1,-,N/A,Rain,Light Rain,150,2013-10-10 20:35:00
1:55 PM,73.4,37.4,27,29.91,10.0,SE,8.1,-,N/A,,Clear,140,2013-10-10 20:55:00
2:15 PM,73.4,39.2,29,29.91,10.0,SE,6.9,-,N/A,,Clear,140,2013-10-10 21:15:00
2:35 PM,73.4,39.2,29,29.91,10.0,SSE,8.1,-,N/A,,Clear,160,2013-10-10 21:35:00
2:55 PM,73.4,39.2,29,29.91,10.0,SSE,8.1,-,N/A,,Clear,160,2013-10-10 21:55:00
3:15 PM,73.4,39.2,29,29.91,10.0,SSE,8.1,-,N/A,,Clear,160,2013-10-10 22:15:00
3:35 PM,73.4,39.2,29,29.91,10.0,SSE,8.1,-,N/A,,Clear,150,2013-10-10 22:35:00
3:55 PM,73.4,41.0,31,29.91,10.0,SSE,8.1,-,N/A,,Clear,150,2013-10-10 22:55:00
4:15 PM,73.4,41.0,31,29.91,10.0,SSE,8.1,-,N/A,,Clear,160,2013-10-10 23:15:00
4:35 PM,73.4,39.2,29,29.91,10.0,SSE,6.9,-,N/A,,Clear,160,2013-10-10 23:35:00
4:55 PM,73.4,39.2,29,29.91,10.0,SSE,6.9,-,N/A,,Clear,160,2013-10-10 23:55:00
5:15 PM,73.4,39.2,29,29.92,10.0,SSE,4.6,-,N/A,,Clear,150,2013-10-11 00:15:00
5:35 PM,69.8,46.4,43,29.92,10.0,East,5.8,-,N/A,,Clear,100,2013-10-11 00:35:00
5:55 PM,66.2,48.2,52,29.93,10.0,NE,8.1,-,N/A,,Clear,40,2013-10-11 00:55:00
6:15 PM,64.4,50.0,59,29.93,10.0,North,8.1,-,N/A,,Clear,10,2013-10-11 01:15:00
6:35 PM,59.0,50.0,72,29.94,9.0,North,10.4,-,N/A,,Clear,360,2013-10-11 01:35:00
6:55 PM,57.2,48.2,72,29.95,10.0,North,12.7,-,N/A,,Clear,360,2013-10-11 01:55:00
7:15 PM,55.4,48.2,77,29.96,10.0,North,12.7,-,N/A,,Clear,360,2013-10-11 02:15:00
7:35 PM,55.4,48.2,77,29.96,10.0,North,11.5,18.4,N/A,,Clear,350,2013-10-11 02:35:00
7:55 PM,53.6,48.2,82,29.97,10.0,North,12.7,-,N/A,,Clear,350,2013-10-11 02:55:00
8:15 PM,51.8,50.0,94,29.98,10.0,North,11.5,-,N/A,,Clear,350,2013-10-11 03:15:00
8:35 PM,50.0,50.0,100,29.99,9.0,North,9.2,-,N/A,,Clear,360,2013-10-11 03:35:00
8:55 PM,50.0,48.2,94,29.99,8.0,North,6.9,-,N/A,,Clear,360,2013-10-11 03:55:00
9:15 PM,48.2,48.2,100,30.00,8.0,North,4.6,-,0.03,,Clear,360,2013-10-11 04:15:00
9:35 PM,48.2,48.2,100,30.00,7.0,North,4.6,-,0.06,,Clear,350,2013-10-11 04:35:00
9:55 PM,46.4,46.4,100,30.00,7.0,NNW,3.5,-,0.06,,Clear,340,2013-10-11 04:55:00
10:15 PM,46.4,46.4,100,30.00,8.0,Calm,Calm,-,N/A,,Clear,0,2013-10-11 05:15:00
10:35 PM,46.4,46.4,100,30.01,7.0,NNW,3.5,-,N/A,,Clear,340,2013-10-11 05:35:00
10:55 PM,44.6,44.6,100,30.01,7.0,NNW,4.6,-,N/A,,Clear,330,2013-10-11 05:55:00
11:15 PM,46.4,46.4,100,30.02,8.0,NNW,4.6,-,N/A,,Clear,340,2013-10-11 06:15:00
11:55 PM,44.6,44.6,100,30.02,10.0,NNW,3.5,-,N/A,,Clear,330,2013-10-11 06:55:00